Location: Ailingen
(47.6833°N, 9.5000°E)
Time: 04:26:12
(UTC+00:00)

Meteor 2-1 Rocket - Visible Passes

Search period start: 19 February 2026 00:00
Search period end: 01 March 2026 00:00
Orbit: 824 x 910 km, 81.3° (Epoch: 18 February)

Date Brightness Start Highest point End Pass type
(mag) Time Alt. Az. Time Alt. Az. Time Alt. Az.
19 Feb 6.6 05:02:44 10° SE 05:07:17 27° E 05:11:58 10° NNE visible
19 Feb 5.5 17:22:15 10° NNW 17:27:53 50° W 17:33:35 10° SSW visible
20 Feb 6.5 04:55:33 10° SE 05:00:09 27° E 05:04:51 10° NNE visible
20 Feb 5.5 17:15:07 10° NNW 17:20:47 49° W 17:26:27 10° SSW visible
21 Feb 6.5 04:48:24 10° SE 04:53:01 28° E 04:57:45 10° NNE visible
22 Feb 6.4 04:41:14 10° SE 04:45:53 28° E 04:50:39 10° NNE visible
23 Feb 6.4 04:34:03 10° SE 04:38:45 29° E 04:43:33 10° NNE visible
24 Feb 6.3 04:26:54 10° SE 04:31:36 29° E 04:36:27 10° NNE visible
25 Feb 6.3 04:19:44 10° SSE 04:24:29 29° E 04:29:21 10° NNE visible
26 Feb 6.2 04:12:33 10° SSE 04:17:21 30° E 04:22:14 10° NNE visible
27 Feb 6.2 04:05:24 10° SSE 04:10:13 30° E 04:15:08 10° NNE visible
28 Feb 6.2 03:58:14 10° SSE 04:03:05 30° E 04:08:02 10° NNE visible
